星链-35122 (STARLINK-35122)

导读

STARLINK-35122是美国太空探索技术公司(SpaceX)星链星座的一员,于2025年9月5日发射。星链项目旨在构建覆盖全球的低轨卫星互联网系统,可向全球偏远地区及网络基础设施薄弱区域提供高速宽带服务,STARLINK-35122的入轨进一步扩充了星链星座的网络覆盖与通信容量。

基本信息
目录编号:
65510
目录名称:
STARLINK-35122
国际标识:
2025-198U
轨道中心:
EARTH
卫星名称:
星链-35122
卫星全名:
星链-35122 (STARLINK-35122)
卫星状态:
在轨 (已飞行281 天)
发射日期:
2025-09-05 UTC
国别 :
美国 (US)
星等 :
--
轨道信息
数据来源 国际轨道数据 AOE轨道数据
星历时间 2026-06-13T15:38:13+0800
6小时前
查看轨道信息
2026-06-12T01:00:00+0800
1天前
查看轨道信息
半长轴 6840.827km 6840.837km
偏心率 0.0001431 0.0000672
轨道倾角 53.158° 53.158°
近地点辐角 87.844° 103.989°
升交点赤经 185.221° 192.749°
平近点角 272.273° 358.452°
近地点 461.711km 462.24km
远地点 463.669km 463.16km
周期 93.847分钟 93.848分钟
每日圈数 15.344045 15.344011
详细信息
固有亮度:
5
最大亮度:
2.5
卫星平台:
Starlink V1.0
覆盖范围:
全球
运营商:
太空探索技术公司
运营商所在国:
美国
制造商(研发单位):
太空探索技术公司
制造商所在国:
美国
使用方式:
暂无
卫星简介
Starlink 计划是 SpaceX 推出的全球卫星互联网项目,通过发射低轨道卫星,为全球尤其是偏远地区提供高速、低延迟的互联网服务。自 2019 年起,Starlink 已部署数千颗卫星,旨在缩小全球数字鸿沟,推动互联网普及。该项目还为军事、航空等行业提供通信支持,带来广泛经济效益。
2D轨道图
3D轨道图
轨道高度分析图
轨道倾角分析图
轨道综合分析图
查看轨道综合分析图